QPF
0.02 0.01 0.01 0.01 0.01 0.00 0.00 0.00 0.00 0.00 0.00 0.00 0.00 0.00 0.00 0.00 0.01 0.02 0.01 0.01 0.01 0.01 0.01 0.01 0.01 0.01 0.02 0.02 0.03 0.04 0.03 0.02 0.02 0.02 0.02 0.03 0.02 0.02 0.02 0.03 0.03 0.04 0.03 0.03
0.01 0.01 0.01 0.00 0.00 0.00 0.00 0.01 0.00 0.00 0.00 0.00 0.00 0.00 0.00 0.00 0.00 0.00 0.01 0.01 0.01 0.01 0.01 0.01 0.01 0.01 0.01 0.02 0.03 0.02 0.03 0.03 0.03 0.03 0.03 0.02 0.02 0.02 0.02 0.03 0.04 0.04 0.03 0.04
0.01 0.01 0.00 0.00 0.01 0.01 0.01 0.00 0.00 0.00 0.00 0.00 0.00 0.00 0.00 0.00 0.00 0.00 0.00 0.01 0.01 0.01 0.02 0.02 0.01 0.01 0.01 0.02 0.05 0.03 0.02 0.02 0.02 0.03 0.03 0.03 0.03 0.03 0.03 0.04 0.04 0.04 0.05 0.06
0.00 0.00 0.00 0.01 0.02 0.01 0.01 0.01 0.00 0.00 0.00 0.00 0.00 0.00 0.00 0.01 0.00 0.00 0.00 0.01 0.01 0.01 0.01 0.02 0.03 0.01 0.01 0.02 0.05 0.04 0.02 0.02 0.03 0.04 0.03 0.03 0.03 0.04 0.04 0.05 0.03 0.05 0.07 0.08
0.00 0.01 0.00 0.01 0.02 0.01 0.02 0.01 0.01 0.01 0.00 0.00 0.00 0.01 0.01 0.00 0.00 0.00 0.00 0.00 0.00 0.01 0.01 0.01 0.03 0.03 0.01 0.02 0.05 0.03 0.01 0.01 0.03 0.04 0.02 0.01 0.02 0.02 0.04 0.04 0.03 0.04 0.04 0.04
0.00 0.01 0.00 0.00 0.01 0.01 0.01 0.01 0.01 0.01 0.01 0.01 0.01 0.01 0.01 0.01 0.00 0.00 0.00 0.00 0.00 0.00 0.00 0.01 0.02 0.03 0.04 0.04 0.03 0.02 0.01 0.01 0.02 0.02 0.01 0.01 0.02 0.02 0.01 0.02 0.01 0.02 0.02 0.02
0.01 0.01 0.01 0.00 0.01 0.01 0.01 0.01 0.02 0.02 0.02 0.02 0.01 0.01 0.01 0.01 0.01 0.01 0.00 0.00 0.00 0.00 0.00 0.00 0.01 0.02 0.02 0.01 0.01 0.01 0.01 0.01 0.01 0.01 0.01 0.02 0.02 0.02 0.01 0.01 0.01 0.01 0.02 0.02
0.01 0.02 0.01 0.01 0.01 0.01 0.01 0.01 0.02 0.02 0.02 0.02 0.01 0.02 0.02 0.01 0.01 0.02 0.01 0.01 0.00 0.00 0.01 0.01 0.01 0.01 0.01 0.01 0.01 0.01 0.02 0.01 0.01 0.01 0.01 0.02 0.01 0.01 0.02 0.02 0.01 0.01 0.01 0.03
0.00 0.00 0.00 0.01 0.01 0.00 0.01 0.01 0.00 0.00 0.01 0.01 0.01 0.01 0.01 0.01 0.01 0.01 0.01 0.01 0.01 0.02 0.02 0.01 0.02 0.02 0.01 0.02 0.02 0.02 0.02 0.02 0.01 0.01 0.01 0.02 0.02 0.02 0.03 0.03 0.04 0.04 0.03 0.02
0.00 0.00 0.00 0.01 0.01 0.00 0.00 0.01 0.01 0.01 0.01 0.01 0.01 0.01 0.00 0.00 0.00 0.01 0.00 0.01 0.03 0.04 0.03 0.01 0.01 0.01 0.02 0.01 0.01 0.01 0.02 0.02 0.01 0.01 0.01 0.01 0.01 0.01 0.02 0.02 0.03 0.02 0.02 0.02
0.00 0.00 0.01 0.01 0.00 0.00 0.00 0.00 0.00 0.01 0.01 0.01 0.01 0.01 0.00 0.00 0.00 0.01 0.01 0.01 0.01 0.02 0.02 0.02 0.01 0.00 0.01 0.01 0.01 0.01 0.02 0.01 0.01 0.01 0.01 0.01 0.01 0.01 0.01 0.01 0.01 0.01 0.02 0.02
0.00 0.00 0.00 0.00 0.00 0.00 0.00 0.00 0.00 0.01 0.00 0.00 0.01 0.01 0.00 0.00 0.00 0.00 0.01 0.01 0.01 0.01 0.01 0.01 0.02 0.01 0.01 0.01 0.01 0.01 0.02 0.02 0.02 0.01 0.01 0.02 0.02 0.01 0.01 0.01 0.01 0.01 0.02 0.02
0.00 0.00 0.01 0.01 0.01 0.00 0.00 0.00 0.00 0.00 0.00 0.00 0.01 0.01 0.00 0.00 0.00 0.00 0.00 0.00 0.00 0.01 0.01 0.01 0.01 0.01 0.02 0.03 0.02 0.01 0.02 0.02 0.02 0.02 0.01 0.01 0.01 0.01 0.01 0.01 0.01 0.01 0.01 0.02
0.01 0.01 0.00 0.01 0.00 0.00 0.00 0.00 0.00 0.00 0.01 0.01 0.01 0.01 0.00 0.00 0.00 0.00 0.00 0.00 0.00 0.01 0.00 0.00 0.01 0.02 0.05 0.05 0.04 0.03 0.02 0.02 0.02 0.02 0.03 0.01 0.01 0.01 0.01 0.02 0.02 0.01 0.01 0.02
0.00 0.01 0.00 0.00 0.01 0.00 0.00 0.00 0.00 0.00 0.01 0.01 0.01 0.01 0.01 0.00 0.00 0.00 0.00 0.00 0.00 0.00 0.00 0.00 0.01 0.02 0.04 0.04 0.04 0.04 0.03 0.01 0.01 0.01 0.02 0.02 0.01 0.01 0.01 0.02 0.03 0.03 0.03 0.03
0.00 0.01 0.00 0.00 0.01 0.00 0.00 0.00 0.00 0.00 0.01 0.01 0.01 0.01 0.00 0.00 0.00 0.00 0.01 0.00 0.00 0.00 0.00 0.00 0.00 0.00 0.01 0.02 0.04 0.03 0.01 0.01 0.01 0.01 0.01 0.02 0.01 0.01 0.01 0.01 0.02 0.02 0.03 0.03
0.00 0.01 0.00 0.00 0.00 0.00 0.00 0.00 0.00 0.00 0.01 0.01 0.00 0.00 0.00 0.00 0.00 0.00 0.00 0.00 0.00 0.00 0.00 0.01 0.00 0.00 0.00 0.01 0.02 0.04 0.01 0.01 0.01 0.01 0.01 0.02 0.02 0.02 0.02 0.03 0.04 0.04 0.04 0.03
0.00 0.01 0.01 0.01 0.00 0.00 0.00 0.00 0.00 0.00 0.00 0.00 0.00 0.00 0.00 0.00 0.00 0.00 0.00 0.01 0.00 0.01 0.01 0.01 0.02 0.02 0.02 0.02 0.02 0.02 0.02 0.03 0.03 0.04 0.03 0.03 0.04 0.05 0.04 0.04 0.04 0.04 0.04 0.03
0.01 0.01 0.01 0.01 0.01 0.00 0.00 0.00 0.00 0.01 0.01 0.00 0.00 0.00 0.00 0.00 0.00 0.01 0.01 0.01 0.00 0.00 0.01 0.02 0.02 0.02 0.02 0.02 0.03 0.04 0.04 0.04 0.06 0.06 0.05 0.05 0.05 0.04 0.04 0.04 0.04 0.04 0.03 0.03
0.01 0.01 0.00 0.00 0.00 0.00 0.00 0.00 0.00 0.01 0.01 0.00 0.00 0.00 0.00 0.00 0.01 0.01 0.01 0.01 0.00 0.00 0.00 0.01 0.02 0.03 0.03 0.03 0.03 0.04 0.06 0.07 0.09 0.09 0.08 0.06 0.05 0.04 0.04 0.04 0.03 0.03 0.02 0.02
0.02 0.03 0.01 0.01 0.00 0.00 0.00 0.00 0.01 0.01 0.01 0.01 0.00 0.00 0.00 0.00 0.00 0.00 0.01 0.01 0.01 0.01 0.01 0.01 0.01 0.01 0.02 0.03 0.03 0.04 0.07 0.09 0.09 0.09 0.07 0.05 0.05 0.04 0.03 0.02 0.03 0.02 0.02 0.02
0.02 0.02 0.01 0.02 0.01 0.01 0.00 0.00 0.01 0.01 0.01 0.00 0.00 0.00 0.00 0.00 0.00 0.00 0.00 0.01 0.01 0.01 0.01 0.01 0.01 0.01 0.01 0.03 0.03 0.05 0.04 0.05 0.04 0.03 0.04 0.04 0.03 0.03 0.02 0.02 0.01 0.01 0.01 0.01
0.01 0.01 0.01 0.01 0.02 0.01 0.00 0.01 0.01 0.00 0.00 0.00 0.00 0.00 0.00 0.00 0.00 0.00 0.00 0.00 0.01 0.01 0.01 0.01 0.01 0.01 0.01 0.02 0.03 0.04 0.04 0.04 0.03 0.02 0.02 0.03 0.02 0.03 0.03 0.02 0.01 0.01 0.01 0.01
0.01 0.01 0.01 0.01 0.01 0.00 0.01 0.01 0.01 0.00 0.00 0.00 0.00 0.00 0.00 0.01 0.00 0.00 0.00 0.00 0.00 0.00 0.00 0.00 0.01 0.01 0.02 0.02 0.03 0.03 0.03 0.03 0.03 0.02 0.02 0.03 0.03 0.05 0.07 0.06 0.03 0.01 0.01 0.00
0.01 0.01 0.02 0.02 0.01 0.00 0.00 0.01 0.01 0.01 0.00 0.00 0.00 0.00 0.01 0.01 0.01 0.00 0.00 0.01 0.01 0.01 0.01 0.00 0.00 0.01 0.01 0.01 0.02 0.02 0.02 0.02 0.02 0.02 0.03 0.04 0.04 0.06 0.07 0.06 0.04 0.02 0.01 0.01
0.01 0.01 0.02 0.03 0.02 0.01 0.01 0.01 0.01 0.00 0.00 0.00 0.00 0.00 0.00 0.01 0.01 0.01 0.01 0.01 0.01 0.01 0.00 0.00 0.00 0.00 0.00 0.00 0.01 0.01 0.02 0.02 0.01 0.01 0.02 0.04 0.05 0.06 0.06 0.05 0.05 0.04 0.03 0.02
MSLP
1005.13 1005.64 1005.93 1006.02 1005.95 1005.79 1005.62 1005.52 1005.53 1005.64 1005.84 1006.09 1006.32 1006.52 1006.65 1006.72 1006.77 1006.82 1006.90 1007.05 1007.25 1007.47 1007.67 1007.80 1007.82 1007.72 1007.50 1007.22 1006.92 1006.68 1006.57 1006.61 1006.83 1007.20 1007.68 1008.24 1008.81 1009.37 1009.90 1010.39 1010.88 1011.39 1011.94 1012.53
1005.51 1005.93 1006.13 1006.13 1005.99 1005.80 1005.64 1005.57 1005.62 1005.78 1006.02 1006.28 1006.51 1006.67 1006.75 1006.77 1006.76 1006.78 1006.86 1007.03 1007.29 1007.60 1007.92 1008.19 1008.36 1008.40 1008.32 1008.16 1007.96 1007.80 1007.73 1007.80 1008.02 1008.38 1008.84 1009.36 1009.88 1010.39 1010.85 1011.28 1011.71 1012.14 1012.61 1013.13
1005.67 1005.99 1006.08 1006.01 1005.84 1005.65 1005.53 1005.53 1005.66 1005.90 1006.20 1006.50 1006.74 1006.88 1006.92 1006.88 1006.82 1006.79 1006.84 1007.01 1007.30 1007.66 1008.06 1008.42 1008.70 1008.85 1008.88 1008.81 1008.69 1008.60 1008.59 1008.69 1008.94 1009.31 1009.78 1010.29 1010.80 1011.27 1011.70 1012.08 1012.44 1012.81 1013.20 1013.63
1005.60 1005.80 1005.82 1005.70 1005.53 1005.40 1005.36 1005.47 1005.71 1006.06 1006.45 1006.80 1007.05 1007.17 1007.17 1007.07 1006.94 1006.85 1006.86 1007.01 1007.30 1007.69 1008.14 1008.57 1008.92 1009.15 1009.26 1009.26 1009.21 1009.17 1009.21 1009.35 1009.63 1010.02 1010.50 1011.01 1011.53 1011.99 1012.40 1012.75 1013.07 1013.37 1013.68 1014.03
1005.33 1005.45 1005.41 1005.29 1005.17 1005.12 1005.20 1005.45 1005.83 1006.30 1006.77 1007.17 1007.43 1007.52 1007.46 1007.29 1007.09 1006.93 1006.89 1007.01 1007.29 1007.70 1008.18 1008.66 1009.08 1009.38 1009.55 1009.62 1009.63 1009.63 1009.70 1009.86 1010.15 1010.55 1011.04 1011.56 1012.07 1012.54 1012.93 1013.26 1013.54 1013.79 1014.05 1014.32
1004.95 1005.00 1004.95 1004.87 1004.83 1004.90 1005.13 1005.52 1006.03 1006.60 1007.14 1007.56 1007.80 1007.85 1007.72 1007.46 1007.18 1006.96 1006.86 1006.95 1007.23 1007.66 1008.19 1008.73 1009.21 1009.59 1009.83 1009.96 1010.02 1010.06 1010.13 1010.30 1010.58 1010.97 1011.44 1011.94 1012.45 1012.90 1013.29 1013.61 1013.86 1014.08 1014.28 1014.49
1004.53 1004.56 1004.53 1004.51 1004.58 1004.78 1005.14 1005.66 1006.28 1006.91 1007.47 1007.88 1008.08 1008.05 1007.84 1007.50 1007.13 1006.85 1006.72 1006.79 1007.08 1007.55 1008.13 1008.75 1009.32 1009.79 1010.12 1010.32 1010.43 1010.49 1010.58 1010.73 1010.97 1011.32 1011.74 1012.21 1012.68 1013.11 1013.48 1013.78 1014.02 1014.22 1014.39 1014.57
1004.13 1004.16 1004.18 1004.25 1004.42 1004.74 1005.22 1005.82 1006.49 1007.14 1007.68 1008.03 1008.15 1008.03 1007.73 1007.30 1006.87 1006.54 1006.39 1006.47 1006.79 1007.32 1007.98 1008.70 1009.37 1009.95 1010.38 1010.67 1010.84 1010.94 1011.03 1011.15 1011.35 1011.63 1011.99 1012.39 1012.81 1013.20 1013.55 1013.83 1014.06 1014.24 1014.40 1014.54
1003.75 1003.82 1003.90 1004.06 1004.32 1004.73 1005.27 1005.91 1006.58 1007.19 1007.66 1007.92 1007.95 1007.74 1007.35 1006.86 1006.39 1006.03 1005.88 1005.99 1006.36 1006.95 1007.70 1008.52 1009.32 1010.01 1010.57 1010.96 1011.21 1011.37 1011.47 1011.58 1011.73 1011.94 1012.22 1012.54 1012.89 1013.23 1013.53 1013.80 1014.01 1014.18 1014.32 1014.45
1003.39 1003.50 1003.65 1003.87 1004.21 1004.67 1005.23 1005.85 1006.47 1007.00 1007.38 1007.54 1007.47 1007.18 1006.73 1006.21 1005.72 1005.38 1005.26 1005.40 1005.82 1006.48 1007.31 1008.22 1009.13 1009.94 1010.62 1011.13 1011.48 1011.71 1011.85 1011.96 1012.08 1012.24 1012.44 1012.69 1012.97 1013.25 1013.51 1013.74 1013.93 1014.09 1014.22 1014.33
1002.99 1003.15 1003.36 1003.64 1004.02 1004.49 1005.03 1005.61 1006.14 1006.58 1006.85 1006.93 1006.79 1006.46 1006.00 1005.49 1005.03 1004.72 1004.63 1004.81 1005.26 1005.96 1006.83 1007.81 1008.79 1009.70 1010.48 1011.11 1011.57 1011.89 1012.10 1012.25 1012.37 1012.51 1012.67 1012.86 1013.07 1013.30 1013.52 1013.72 1013.89 1014.03 1014.15 1014.24
1002.55 1002.75 1003.01 1003.33 1003.73 1004.19 1004.69 1005.20 1005.65 1006.00 1006.21 1006.23 1006.07 1005.76 1005.33 1004.88 1004.49 1004.23 1004.18 1004.37 1004.82 1005.50 1006.36 1007.33 1008.33 1009.29 1010.15 1010.87 1011.44 1011.87 1012.17 1012.40 1012.57 1012.72 1012.87 1013.04 1013.23 1013.42 1013.61 1013.78 1013.93 1014.05 1014.15 1014.22
1002.07 1002.31 1002.61 1002.96 1003.37 1003.82 1004.28 1004.73 1005.12 1005.42 1005.59 1005.62 1005.50 1005.25 1004.93 1004.58 1004.27 1004.07 1004.04 1004.22 1004.61 1005.21 1005.98 1006.87 1007.82 1008.76 1009.64 1010.42 1011.08 1011.62 1012.04 1012.37 1012.63 1012.84 1013.03 1013.22 1013.40 1013.58 1013.76 1013.92 1014.06 1014.17 1014.25 1014.31
1001.60 1001.88 1002.22 1002.60 1003.03 1003.47 1003.91 1004.33 1004.69 1004.98 1005.17 1005.25 1005.23 1005.10 1004.91 1004.69 1004.49 1004.35 1004.32 1004.44 1004.72 1005.16 1005.77 1006.50 1007.31 1008.16 1009.00 1009.80 1010.53 1011.17 1011.71 1012.16 1012.53 1012.84 1013.10 1013.34 1013.55 1013.76 1013.95 1014.12 1014.26 1014.38 1014.46 1014.51
1001.22 1001.54 1001.93 1002.36 1002.81 1003.27 1003.71 1004.12 1004.49 1004.81 1005.06 1005.24 1005.35 1005.38 1005.34 1005.26 1005.16 1005.06 1005.01 1005.03 1005.15 1005.39 1005.76 1006.27 1006.88 1007.57 1008.32 1009.09 1009.84 1010.55 1011.20 1011.77 1012.27 1012.69 1013.05 1013.36 1013.64 1013.89 1014.11 1014.31 1014.49 1014.63 1014.73 1014.79
1001.00 1001.38 1001.83 1002.31 1002.81 1003.30 1003.77 1004.20 1004.61 1004.98 1005.32 1005.61 1005.86 1006.05 1006.17 1006.22 1006.20 1006.13 1006.03 1005.93 1005.87 1005.87 1005.98 1006.22 1006.59 1007.08 1007.69 1008.38 1009.12 1009.87 1010.60 1011.27 1011.87 1012.41 1012.87 1013.27 1013.62 1013.93 1014.21 1014.46 1014.68 1014.86 1015.00 1015.10
1001.01 1001.46 1001.98 1002.53 1003.09 1003.62 1004.13 1004.60 1005.05 1005.48 1005.89 1006.29 1006.66 1006.98 1007.24 1007.39 1007.44 1007.39 1007.23 1007.01 1006.77 1006.54 1006.39 1006.37 1006.49 1006.77 1007.22 1007.80 1008.49 1009.23 1009.99 1010.73 1011.41 1012.03 1012.57 1013.04 1013.46 1013.83 1014.17 1014.48 1014.76 1015.00 1015.20 1015.35
1001.25 1001.78 1002.39 1003.02 1003.64 1004.23 1004.77 1005.28 1005.76 1006.23 1006.70 1007.16 1007.61 1008.03 1008.37 1008.60 1008.69 1008.64 1008.44 1008.13 1007.73 1007.32 1006.96 1006.71 1006.61 1006.70 1006.98 1007.44 1008.05 1008.75 1009.50 1010.25 1010.96 1011.61 1012.19 1012.70 1013.17 1013.58 1013.97 1014.34 1014.68 1015.00 1015.27 1015.49
1001.70 1002.31 1003.01 1003.72 1004.40 1005.04 1005.62 1006.14 1006.63 1007.10 1007.58 1008.07 1008.55 1009.00 1009.38 1009.65 1009.78 1009.73 1009.51 1009.14 1008.67 1008.14 1007.64 1007.24 1006.98 1006.92 1007.06 1007.40 1007.90 1008.53 1009.22 1009.92 1010.60 1011.23 1011.80 1012.31 1012.77 1013.21 1013.62 1014.03 1014.42 1014.80 1015.14 1015.44
1002.26 1002.97 1003.75 1004.53 1005.28 1005.95 1006.55 1007.07 1007.54 1007.99 1008.44 1008.89 1009.35 1009.79 1010.18 1010.46 1010.60 1010.57 1010.37 1010.00 1009.51 1008.96 1008.41 1007.93 1007.60 1007.44 1007.48 1007.71 1008.10 1008.62 1009.21 1009.82 1010.41 1010.96 1011.46 1011.91 1012.33 1012.74 1013.14 1013.56 1013.99 1014.41 1014.81 1015.17
1002.88 1003.66 1004.51 1005.36 1006.16 1006.86 1007.47 1007.98 1008.42 1008.82 1009.20 1009.59 1009.99 1010.39 1010.74 1011.01 1011.17 1011.17 1011.01 1010.70 1010.27 1009.76 1009.25 1008.78 1008.44 1008.24 1008.21 1008.36 1008.64 1009.03 1009.49 1009.96 1010.41 1010.83 1011.21 1011.55 1011.88 1012.22 1012.58 1012.97 1013.39 1013.83 1014.27 1014.68
1003.48 1004.33 1005.24 1006.14 1006.97 1007.70 1008.32 1008.81 1009.21 1009.55 1009.87 1010.18 1010.50 1010.83 1011.14 1011.39 1011.56 1011.61 1011.52 1011.31 1010.98 1010.58 1010.15 1009.77 1009.46 1009.27 1009.21 1009.28 1009.46 1009.72 1010.02 1010.33 1010.61 1010.86 1011.08 1011.27 1011.48 1011.71 1011.98 1012.31 1012.69 1013.12 1013.56 1014.00
1004.05 1004.93 1005.88 1006.81 1007.68 1008.44 1009.06 1009.55 1009.92 1010.22 1010.48 1010.72 1010.97 1011.23 1011.49 1011.72 1011.90 1012.00 1011.99 1011.89 1011.68 1011.42 1011.12 1010.83 1010.60 1010.43 1010.36 1010.37 1010.46 1010.58 1010.72 1010.85 1010.95 1011.02 1011.05 1011.09 1011.14 1011.23 1011.39 1011.63 1011.94 1012.32 1012.74 1013.18
1004.59 1005.48 1006.43 1007.39 1008.28 1009.06 1009.71 1010.21 1010.58 1010.86 1011.08 1011.28 1011.47 1011.68 1011.90 1012.11 1012.30 1012.44 1012.51 1012.50 1012.43 1012.29 1012.11 1011.93 1011.76 1011.63 1011.55 1011.51 1011.50 1011.50 1011.49 1011.45 1011.37 1011.25 1011.12 1010.98 1010.87 1010.82 1010.85 1010.97 1011.19 1011.50 1011.87 1012.28
1005.13 1006.00 1006.94 1007.89 1008.80 1009.60 1010.28 1010.81 1011.21 1011.50 1011.72 1011.89 1012.06 1012.24 1012.43 1012.63 1012.82 1012.99 1013.11 1013.18 1013.20 1013.15 1013.07 1012.97 1012.85 1012.74 1012.65 1012.55 1012.46 1012.35 1012.20 1012.01 1011.78 1011.51 1011.22 1010.93 1010.68 1010.49 1010.39 1010.39 1010.49 1010.71 1011.00 1011.37
1005.72 1006.53 1007.43 1008.36 1009.26 1010.08 1010.78 1011.36 1011.80 1012.12 1012.37 1012.56 1012.73 1012.90 1013.08 1013.26 1013.45 1013.63 1013.78 1013.89 1013.95 1013.96 1013.93 1013.86 1013.77 1013.66 1013.53 1013.39 1013.22 1013.02 1012.77 1012.47 1012.12 1011.74 1011.33 1010.92 1010.55 1010.24 1010.01 1009.89 1009.89 1010.00 1010.21 1010.52
Thickness
5832 5826 5821 5827 5832 5830 5826 5822 5819 5825 5836 5829 5823 5822 5826 5829 5826 5824 5823 5822 5818 5817 5819 5818 5816 5813 5810 5806 5802 5799 5796 5794 5792 5790 5788 5784 5782 5782 5782 5780 5777 5775 5773 5772
5821 5819 5831 5835 5833 5828 5825 5820 5821 5826 5833 5828 5822 5822 5829 5829 5826 5826 5824 5822 5820 5819 5817 5814 5814 5812 5809 5805 5802 5798 5795 5794 5792 5790 5786 5784 5782 5781 5780 5778 5775 5773 5771 5769
5815 5826 5835 5829 5824 5820 5822 5820 5820 5820 5827 5830 5821 5817 5822 5827 5829 5828 5828 5827 5825 5821 5818 5815 5813 5811 5809 5805 5802 5800 5796 5793 5791 5789 5788 5784 5780 5779 5777 5774 5772 5771 5769 5767
5819 5831 5827 5824 5823 5822 5816 5829 5827 5823 5818 5818 5819 5803 5816 5823 5823 5824 5826 5827 5826 5825 5822 5819 5815 5811 5809 5807 5805 5800 5796 5792 5790 5788 5786 5781 5777 5773 5772 5771 5770 5769 5766 5764
5816 5823 5820 5818 5824 5826 5823 5832 5828 5825 5820 5816 5819 5809 5815 5824 5817 5822 5827 5828 5828 5827 5823 5819 5817 5813 5811 5809 5805 5800 5795 5791 5789 5787 5783 5779 5776 5774 5773 5770 5766 5765 5764 5762
5822 5831 5828 5826 5831 5831 5830 5826 5824 5824 5822 5801 5812 5806 5807 5821 5819 5822 5827 5828 5827 5827 5823 5819 5817 5814 5810 5808 5804 5800 5793 5789 5787 5784 5781 5777 5773 5770 5768 5765 5763 5763 5762 5760
5807 5819 5829 5832 5820 5824 5824 5814 5800 5795 5796 5800 5816 5807 5809 5824 5829 5827 5825 5826 5827 5825 5821 5817 5813 5810 5807 5804 5801 5797 5791 5786 5785 5782 5779 5775 5771 5768 5765 5763 5761 5760 5759 5757
5795 5799 5819 5826 5821 5818 5821 5819 5797 5783 5787 5802 5809 5804 5817 5829 5831 5830 5829 5827 5824 5822 5820 5816 5813 5809 5805 5802 5798 5794 5789 5785 5782 5779 5776 5773 5770 5769 5766 5762 5761 5758 5757 5755
5800 5800 5822 5827 5830 5825 5815 5816 5828 5812 5806 5798 5805 5810 5819 5827 5824 5824 5823 5821 5818 5818 5817 5815 5812 5808 5804 5800 5796 5792 5787 5783 5780 5777 5773 5770 5767 5765 5762 5759 5757 5756 5752 5751
5811 5795 5812 5821 5823 5822 5824 5823 5815 5806 5783 5781 5795 5802 5807 5812 5815 5817 5817 5817 5815 5815 5814 5812 5809 5806 5803 5801 5796 5792 5787 5781 5778 5775 5772 5769 5765 5762 5758 5756 5751 5749 5747 5746
5812 5796 5799 5808 5804 5807 5808 5809 5809 5809 5807 5788 5783 5798 5823 5818 5818 5817 5816 5816 5813 5812 5811 5808 5806 5803 5801 5798 5795 5789 5784 5779 5775 5772 5769 5765 5762 5759 5756 5752 5749 5746 5743 5741
5806 5801 5793 5801 5815 5820 5816 5812 5808 5794 5791 5798 5794 5798 5825 5823 5823 5819 5816 5814 5812 5809 5807 5805 5802 5799 5796 5792 5790 5786 5782 5778 5774 5770 5765 5761 5758 5755 5752 5749 5746 5743 5740 5738
5799 5792 5777 5782 5794 5804 5804 5809 5813 5813 5806 5798 5793 5796 5818 5820 5818 5817 5812 5809 5806 5803 5802 5800 5797 5793 5790 5787 5784 5781 5778 5775 5772 5767 5762 5757 5754 5751 5747 5745 5742 5740 5737 5734
5798 5791 5785 5779 5790 5800 5795 5800 5805 5805 5794 5794 5797 5799 5808 5809 5808 5808 5807 5804 5802 5799 5796 5795 5792 5788 5785 5782 5778 5775 5773 5771 5768 5763 5758 5752 5749 5745 5743 5740 5737 5735 5732 5730
5793 5783 5788 5794 5801 5802 5797 5797 5799 5798 5800 5796 5798 5800 5802 5806 5805 5804 5802 5798 5795 5793 5791 5789 5786 5783 5780 5776 5772 5769 5767 5766 5763 5758 5754 5749 5745 5742 5738 5735 5732 5730 5728 5726
5784 5777 5780 5780 5792 5793 5789 5794 5796 5796 5798 5797 5796 5795 5807 5805 5802 5797 5795 5793 5790 5788 5786 5784 5780 5777 5774 5771 5768 5764 5762 5759 5756 5752 5748 5744 5741 5737 5733 5730 5728 5725 5722 5719
5775 5770 5767 5770 5783 5780 5774 5789 5792 5792 5797 5796 5788 5794 5800 5794 5791 5789 5788 5788 5786 5784 5781 5778 5776 5773 5770 5767 5764 5760 5757 5754 5750 5746 5742 5739 5735 5731 5728 5726 5723 5719 5715 5713
5764 5762 5766 5768 5764 5749 5780 5800 5797 5790 5791 5797 5795 5795 5795 5792 5789 5787 5786 5783 5779 5778 5775 5774 5772 5770 5767 5763 5760 5756 5753 5748 5744 5740 5736 5733 5730 5726 5723 5720 5717 5713 5710 5708
5766 5758 5758 5760 5756 5762 5774 5784 5787 5780 5777 5790 5789 5788 5789 5788 5782 5778 5779 5778 5775 5772 5770 5769 5768 5765 5761 5757 5754 5749 5746 5742 5737 5733 5729 5727 5724 5721 5717 5713 5710 5707 5704 5701
5757 5755 5752 5752 5746 5746 5765 5781 5787 5778 5764 5783 5783 5780 5781 5778 5770 5769 5772 5771 5768 5766 5765 5763 5761 5757 5752 5749 5747 5741 5738 5734 5730 5727 5723 5720 5717 5714 5710 5707 5703 5700 5697 5694
5739 5739 5741 5743 5743 5754 5766 5775 5775 5753 5758 5775 5777 5776 5774 5771 5770 5769 5766 5761 5759 5757 5756 5754 5751 5747 5743 5741 5737 5732 5729 5726 5724 5721 5717 5713 5710 5706 5703 5699 5695 5692 5689 5686
5735 5736 5734 5738 5734 5739 5760 5764 5757 5756 5764 5767 5768 5768 5766 5762 5761 5759 5754 5751 5749 5747 5746 5744 5741 5736 5734 5732 5728 5724 5720 5719 5717 5713 5710 5706 5702 5700 5696 5691 5687 5684 5681 5678
5731 5735 5740 5739 5737 5744 5753 5754 5756 5758 5757 5758 5759 5760 5758 5753 5751 5748 5745 5742 5740 5738 5737 5735 5732 5727 5725 5723 5719 5715 5712 5710 5707 5704 5700 5697 5694 5691 5688 5684 5681 5678 5675 5673
5723 5727 5728 5728 5734 5739 5743 5746 5748 5750 5750 5753 5753 5752 5750 5746 5744 5740 5737 5734 5732 5730 5728 5726 5722 5718 5715 5713 5710 5706 5704 5702 5699 5695 5691 5688 5685 5682 5679 5676 5675 5672 5668 5666
5715 5717 5719 5718 5725 5729 5732 5736 5739 5741 5743 5743 5744 5744 5742 5739 5736 5733 5729 5726 5724 5722 5721 5718 5714 5710 5707 5704 5701 5699 5696 5693 5689 5686 5683 5680 5678 5675 5671 5668 5665 5663 5660 5656
5712 5711 5711 5714 5720 5721 5723 5728 5731 5731 5732 5733 5733 5732 5733 5732 5728 5725 5722 5720 5717 5714 5711 5708 5705 5702 5700 5697 5694 5691 5688 5685 5681 5678 5676 5675 5673 5669 5666 5663 5659 5654 5651 5646